KI5IZM-13 Weather Reports


Display with metric or nautical units.
time (UTC)temp
F
wind
direction
speed
MPH
gust
MPH
rain 1hr
in
rain 24hr
in
rain mn
in
humidity
%
barometer
mb
20260508214517 74 246 0.0 1.0 0.00 0.00 0.00 78 1011.3
20260508213028 75 231 0.0 0.0 0.00 0.00 0.00 79 1010.8
20260508211504 77 71 0.0 5.0 0.00 0.00 0.00 72 1010.8
20260508210004 78 300 0.0 0.0 0.00 0.00 0.00 62 1010.9
20260508204511 79 146 3.0 9.0 0.00 0.00 0.00 59 1010.8
20260508203016 79 94 1.0 10.0 0.00 0.00 0.00 60 1010.7
20260508201518 79 82 2.0 9.0 0.00 0.00 0.00 61 1011.1
20260508200037 79 262 1.0 9.0 0.00 0.00 0.00 61 1011.5
20260508194512 78 108 2.0 7.0 0.00 0.00 0.00 62 1011.7
20260508193009 78 146 1.0 7.0 0.00 0.00 0.00 60 1011.9
20260508191518 78 136 2.0 7.0 0.00 0.00 0.00 60 1012.0
20260508190024 78 115 0.0 10.0 0.00 0.00 0.00 60 1012.1
20260508184528 78 148 4.0 9.0 0.00 0.00 0.00 60 1012.2
20260508183008 76 130 1.0 6.0 0.00 0.00 0.00 61 1012.4
20260508181513 76 135 3.0 11.0 0.00 0.00 0.00 62 1012.8
20260508180018 75 173 2.0 6.0 0.00 0.00 0.00 65 1013.3
20260508174522 74 261 1.0 8.0 0.00 0.00 0.00 64 1013.3
20260508173028 73 87 0.0 8.0 0.00 0.00 0.00 67 1013.5
20260508171535 73 106 2.0 11.0 0.00 0.00 0.00 64 1013.8
20260508170016 72 186 2.0 6.0 0.00 0.00 0.00 68 1014.0
20260508164522 70 74 1.0 8.0 0.00 0.00 0.00 73 1014.6
20260508163005 70 118 5.0 8.0 0.00 0.00 0.00 69 1015.0
20260508161512 70 139 0.0 8.0 0.00 0.00 0.00 73 1015.2
20260508160014 69 107 2.0 6.0 0.00 0.00 0.00 72 1015.5
20260508154518 69 51 0.0 4.0 0.00 0.00 0.00 74 1015.5
20260508153025 69 144 2.0 9.0 0.00 0.00 0.00 74 1015.3
20260508151506 68 144 0.0 7.0 0.00 0.00 0.00 76 1015.4
20260508150019 68 156 1.0 11.0 0.00 0.00 0.00 76 1015.6
20260508144533 68 140 2.0 8.0 0.00 0.00 0.00 75 1015.7
20260508143028 67 128 2.0 7.0 0.00 0.00 0.00 77 1015.5
20260508141526 67 109 2.0 6.0 0.00 0.00 0.00 79 1015.5
20260508140034 66 54 1.0 7.0 0.00 0.00 0.00 83 1015.5
20260508134509 64 85 0.0 6.0 0.00 0.00 0.00 84 1015.3
20260508133019 62 146 0.0 2.0 0.00 0.00 0.00 89 1014.8
20260508131523 60 49 0.0 1.0 0.00 0.00 0.00 93 1014.6
20260508130007 58 92 0.0 0.0 0.00 0.00 0.00 95 1015.0
20260508124512 58 69 0.0 0.0 0.00 0.00 0.00 96 1015.2
20260508123013 57 88 0.0 0.0 0.00 0.00 0.00 96 1015.3
20260508121523 56 292 0.0 0.0 0.00 0.00 0.00 96 1014.8
20260508120024 56 150 0.0 0.0 0.00 0.00 0.00 97 1014.9
20260508114523 55 148 0.0 0.0 0.00 0.00 0.00 96 1015.2
20260508113013 55 148 0.0 0.0 0.00 0.00 0.00 96 1015.2
20260508111514 55 148 0.0 0.0 0.00 0.00 0.00 96 1015.3
20260508110019 55 148 0.0 0.0 0.00 0.00 0.00 96 1015.6
20260508104522 55 148 0.0 0.0 0.00 0.00 0.00 96 1015.8
20260508103008 56 148 0.0 0.0 0.00 0.00 0.00 95 1015.8
20260508101512 56 148 0.0 0.0 0.00 0.00 0.00 95 1015.9
20260508100027 56 148 0.0 0.0 0.00 0.00 0.00 95 1015.8
20260508094524 56 148 0.0 0.0 0.00 0.00 0.00 95 1015.6
20260508093025 57 148 0.0 0.0 0.00 0.00 0.00 95 1015.3
20260508091527 57 148 0.0 0.0 0.00 0.00 0.00 96 1015.5
20260508090013 56 148 0.0 0.0 0.00 0.00 0.00 96 1015.5
20260508084518 56 148 0.0 0.0 0.00 0.00 0.00 95 1015.4
20260508083025 56 148 0.0 0.0 0.00 0.00 0.00 95 1015.4
20260508081528 56 148 0.0 0.0 0.00 0.00 0.00 95 1015.6
20260508080029 56 148 0.0 0.0 0.00 0.00 0.00 95 1015.6
20260508074518 57 148 0.0 0.0 0.00 0.00 0.00 95 1015.6
20260508073003 57 148 0.0 0.0 0.00 0.00 0.00 95 1015.7
20260508071506 57 148 0.0 0.0 0.00 0.00 0.00 95 1016.0
20260508070010 57 148 0.0 0.0 0.00 0.00 0.00 95 1016.2
20260508064507 57 148 0.0 0.0 0.00 0.00 0.00 95 1016.3
20260508063002 57 148 0.0 0.0 0.00 0.00 0.00 95 1016.2
20260508061506 57 148 0.0 0.0 0.00 0.00 0.00 94 1016.1
20260508060007 57 148 0.0 0.0 0.00 0.00 0.00 94 1015.7
20260508054519 57 148 0.0 0.0 0.00 0.00 0.00 94 1015.9
20260508053003 58 148 0.0 0.0 0.00 0.00 0.00 94 1016.1
20260508051510 58 148 0.0 0.0 0.00 0.00 0.00 93 1016.0
20260508050008 58 148 0.0 0.0 0.00 0.00 0.00 93 1016.3
20260508044508 58 148 0.0 0.0 0.00 0.00 0.00 93 1016.6
20260508043014 59 148 0.0 0.0 0.00 0.00 0.00 92 1016.5
20260508041520 59 148 0.0 0.0 0.00 0.00 0.00 92 1016.3
20260508040004 59 148 0.0 0.0 0.00 0.00 0.00 92 1016.6
20260508034519 59 154 0.0 0.0 0.00 0.00 0.00 92 1016.4
20260508033012 60 198 0.0 0.0 0.00 0.00 0.00 91 1016.4
20260508031515 60 198 0.0 0.0 0.00 0.00 0.00 91 1016.7
20260508030018 60 198 0.0 0.0 0.00 0.00 0.00 90 1016.6
20260508024510 60 200 0.0 0.0 0.00 0.00 0.00 90 1016.4
20260508023011 60 144 0.0 0.0 0.00 0.00 0.00 89 1015.8
20260508021512 61 144 0.0 0.0 0.00 0.00 0.00 88 1015.8
20260508020017 62 161 0.0 0.0 0.00 0.00 0.00 87 1016.1
20260508014522 62 62 0.0 0.0 0.00 0.00 0.00 86 1016.3
20260508013006 63 62 0.0 0.0 0.00 0.00 0.00 85 1016.1
20260508011512 63 117 0.0 2.0 0.00 0.00 0.00 83 1015.5
20260508010022 64 314 0.0 4.0 0.00 0.00 0.00 83 1016.5
20260508004530 64 193 0.0 0.0 0.00 0.00 0.00 83 1015.9
20260508003028 65 138 1.0 5.0 0.00 0.00 0.00 80 1015.8
20260508001508 64 248 0.0 1.0 0.00 0.00 0.00 83 1016.2
20260508000015 65 37 0.0 0.0 0.00 0.00 0.00 83 1015.7
20260507234522 66 130 0.0 1.0 0.00 0.00 0.00 79 1015.9
20260507233025 66 106 0.0 3.0 0.00 0.00 0.00 77 1016.1
20260507231525 67 142 0.0 3.0 0.00 0.00 0.00 79 1016.5
20260507230025 67 123 1.0 3.0 0.00 0.00 0.00 76 1016.1
20260507224529 67 143 1.0 4.0 0.00 0.00 0.00 74 1016.4
20260507223003 67 155 0.0 4.0 0.00 0.00 0.00 74 1016.1
20260507221512 67 150 0.0 4.0 0.00 0.00 0.00 77 1016.5
20260507220008 67 138 0.0 4.0 0.00 0.00 0.00 72 1016.3